Flight Track Log - Related Links

Times and Time Zones

All times are in EDT time to prevent confusion due to time zone crossing. See the EJA312 flight status page for this flight to view local times or setup timezone preferences in your user account.

Time Position Orientation Groundspeed Altitude Reporting Facility
EDT Latitude Longitude Course Direction KTS MPH feet Rate Location/Type
01:20PM 34.0000 -118.5000 90° East 154 177 2,000  Level Southern California TRACON
01:21PM 34.0000 -118.5667 270° West 213 245 2,600 513 Climbing Southern California TRACON
01:22PM 33.9956 -118.6250 265° West 216 249 3,000 850 Climbing Los Angeles Center
01:23PM 33.9506 -118.6808 226° Southwest 238 274 4,200 1,355 Climbing Los Angeles Center
01:24PM 33.8806 -118.6589 165° South 264 304 5,800 2,160 Climbing Los Angeles Center
01:25PM 33.9731 -117.8794 90° East  Level Estimated
01:25PM 33.8194 -118.6133 148° Southeast 285 328 8,700  Level Los Angeles Center
01:26PM 33.7350 -118.5500 148° Southeast 302 348 12,000 2,129 Climbing Los Angeles Center
01:27PM 33.6811 -118.4700 129° Southeast 326 375 13,100 1,500 Climbing Los Angeles Center
01:28PM 33.6514 -118.3689 109° East 326 375 15,100 1,887 Climbing Los Angeles Center
01:29PM 33.6447 -118.2564 94° East 348 400 17,000 1,742 Climbing Los Angeles Center
01:30PM 33.6444 -118.1075 90° East 376 433 18,700 1,403 Climbing Los Angeles Center
01:31PM 33.6444 -118.0022 90° East 392 451 19,900 1,500 Climbing Los Angeles Center
01:32PM 33.6442 -117.8392 90° East 407 468 21,800 1,694 Climbing Los Angeles Center
01:33PM 33.6433 -117.7011 90° East 415 478 23,400 1,488 Climbing Los Angeles Center
01:34PM 33.6436 -117.5606 90° East 420 483 24,900 1,597 Climbing Los Angeles Center
01:35PM 33.6417 -117.3894 91° East 430 495 26,700 1,016 Climbing Los Angeles Center
01:36PM 33.6403 -117.2400 91° East 445 512 27,000 144 Climbing Los Angeles Center
01:37PM 33.6400 -117.0808 90° East 475 547 27,000  Level Los Angeles Center
01:38PM 33.6383 -116.9147 91° East 497 572 27,000  Level Los Angeles Center
01:39PM 33.6358 -116.7589 91° East 501 577 27,000  Level Los Angeles Center
01:41PM 33.6336 -116.5600 91° East 494 568 27,000  Level Los Angeles Center
01:42PM 33.6314 -116.3639 91° East 489 563 27,000  Level Los Angeles Center
01:43PM 33.6289 -116.2047 91° East 480 552 27,000  Level Los Angeles Center
01:44PM 33.6242 -116.0097 92° East 483 556 27,000  Level Los Angeles Center
01:45PM 33.6222 -115.8506 91° East 478 550 27,000  Level Los Angeles Center
01:46PM 33.6192 -115.6925 91° East 475 547 27,000  Level Los Angeles Center
01:47PM 33.6136 -115.4989 92° East 481 554 27,000  Level Los Angeles Center
01:48PM 33.6083 -115.3378 92° East 483 556 27,000  Level Los Angeles Center
01:49PM 33.6050 -115.1772 91° East 482 555 27,000  Level Los Angeles Center
01:50PM 33.6014 -115.0178 92° East 479 551 27,000 -484 Level Los Angeles Center
01:51PM 33.5964 -114.8636 92° East 465 535 26,000 -968 Descending Los Angeles Center
01:52PM 33.5914 -114.6875 92° East 444 511 25,000 -484 Descending Los Angeles Center
01:53PM 33.5786 -114.5425 96° East 439 505 25,000  Level Los Angeles Center
01:54PM 33.5692 -114.3944 94° East 445 512 25,000  Level Los Angeles Center
01:55PM 33.5631 -114.2383 93° East 448 516 25,000  Level Albuquerque Center
01:56PM 33.5522 -114.0900 95° East 448 516 25,000 -48 Level Albuquerque Center
01:57PM 33.5400 -113.9394 96° East 452 520 24,900 -919 Descending Albuquerque Center
01:58PM 33.5283 -113.7828 95° East 465 535 23,100 -2,016 Descending Albuquerque Center
01:59PM 33.5175 -113.6261 95° East 471 542 20,700 -2,592 Descending Albuquerque Center
02:00PM 33.5033 -113.4483 95° East 453 521 17,700 -2,710 Descending Albuquerque Center
02:02PM 33.4928 -113.3075 95° East 433 498 15,100 -2,557 Descending Albuquerque Center
02:02PM 33.4833 -113.1931 96° East 400 460 12,800 -2,677 Descending Albuquerque Center
02:03PM 33.4803 -113.1631 97° East 397 457 12,200 -2,197 Descending Albuquerque Center
02:04PM 33.4722 -113.0525 95° East 395 455 10,200 -2,164 Descending Albuquerque Center
02:04PM 33.4689 -113.0464 123° Southeast 340 391 10,000 -2,129 Descending Albuquerque Center
02:05PM 33.4625 -112.9489 94° East 286 329 8,000 -1,983 Descending Albuquerque Center
02:06PM 33.4542 -112.8517 96° East 261 300 6,000 -1,645 Descending Albuquerque Center
02:06PM 33.4572 -112.8661 284° West 304 350 6,300 -1,869 Climbing Albuquerque Center
02:07PM 33.4442 -112.7703 99° East 253 291 4,100 -2,323 Descending Albuquerque Center
02:07PM 33.4428 -112.7642 105° East 276 318 3,900 -1,222 Descending Albuquerque Center
02:08PM 33.4139 -112.7067 121° Southeast 230 265 3,000 -1,065 Descending Albuquerque Center
02:08PM 33.4100 -112.6922 108° East 257 296 2,800 -590 Descending Albuquerque Center
02:09PM 33.3964 -112.6425 108° East 190 219 2,400 -387 Descending Albuquerque Center
02:09PM 33.3947 -112.6294 99° East 214 246 2,400 98 Level Albuquerque Center
02:10PM 33.3872 -112.5786 100° East 188 216 2,500 97 Climbing Albuquerque Center
02:10PM 33.3872 -112.5703 90° East 189 217 2,500  Level Albuquerque Center
02:11PM 33.3844 -112.5156 93° East 191 220 2,500  Level Albuquerque Center
02:11PM 33.3842 -112.5089 93° East 188 216 2,500 -295 Level Albuquerque Center
02:12PM 33.3761 -112.4567 100° East 162 186 2,200 -290 Descending Albuquerque Center
02:12PM 33.3753 -112.4500 99° East 181 208 2,200 -492 Level Albuquerque Center
02:13PM 33.3831 -112.4117 76° East 127 146 1,700 -677 Descending Albuquerque Center
02:13PM 33.3906 -112.4031 44° Northeast 132 152 1,500 -615 Descending Albuquerque Center
02:14PM 33.4186 -112.3781 37° Northeast 126 145 900 -581 Descending Albuquerque Center

Login

Don't have an account? Register now (free) for customized features, flight alerts, and more!